This is the latest recevied weather packets stored in our database for station/object vk4zu-13. If no packets are shown the sender has not sent any weather packets the latest 10 day(s).
| Time | Temp. | Humidity | Pressure | Rain* | Wind** | Luminosity | Snow |
|---|---|---|---|---|---|---|---|
| 1777246294 | 22.78° C | 79% | 1021.8 hPa | 0 mm | - | 575 W/m² | - |
| 1777246236 | 22.22° C | 78% | 1021.8 hPa | 0 mm | - | 573 W/m² | - |
| 1777246166 | 22.22° C | 78% | 1021.9 hPa | 0 mm | - | 571 W/m² | - |
| 1777246097 | 22.22° C | 80% | 1021.9 hPa | 0 mm | - | 566 W/m² | - |
| 1777246026 | 21.67° C | 81% | 1021.9 hPa | 0 mm | - | 561 W/m² | - |
| 1777245956 | 21.67° C | 79% | 1021.9 hPa | 0 mm | - | 555 W/m² | - |
| 1777245892 | 21.67° C | 77% | 1021.9 hPa | 0 mm | - | 555 W/m² | - |
| 1777245840 | 21.67° C | 78% | 1021.9 hPa | 0 mm | - | 554 W/m² | - |
| 1777245820 | 22.22° C | 80% | 1021.9 hPa | 0 mm | - | 552 W/m² | - |
| 1777245700 | 21.67° C | 79% | 1021.8 hPa | 0 mm | - | 547 W/m² | - |
| 1777245638 | 21.67° C | 81% | 1021.8 hPa | 0 mm | - | 547 W/m² | - |
| 1777245575 | 21.67° C | 80% | 1021.9 hPa | 0 mm | - | 547 W/m² | - |
| 1777245516 | 21.67° C | 80% | 1021.8 hPa | 0 mm | - | 538 W/m² | - |
| 1777245451 | 21.67° C | 82% | 1021.8 hPa | 0 mm | - | 534 W/m² | - |
| 1777245392 | 21.67° C | 81% | 1021.8 hPa | 0 mm | - | 534 W/m² | - |
| 1777245322 | 21.67° C | 80% | 1021.7 hPa | 0 mm | - | 536 W/m² | - |
| 1777245252 | 21.11° C | 79% | 1021.8 hPa | 0 mm | - | 536 W/m² | - |
| 1777245182 | 21.67° C | 82% | 1021.8 hPa | 0 mm | - | 534 W/m² | - |
| 1777245113 | 21.11° C | 82% | 1021.7 hPa | 0 mm | - | 538 W/m² | - |
| 1777245042 | 21.11° C | 82% | 1021.7 hPa | 0 mm | - | 506 W/m² | - |
| 1777244975 | 21.11° C | 81% | 1021.7 hPa | 0 mm | - | 517 W/m² | - |
| 1777244916 | 21.11° C | 81% | 1021.8 hPa | 0 mm | - | 517 W/m² | - |
| 1777244861 | 21.11° C | 81% | 1021.7 hPa | 0 mm | - | 497 W/m² | - |
| 1777244786 | 21.11° C | 79% | 1021.9 hPa | 0 mm | - | 515 W/m² | - |
| 1777244716 | 21.11° C | 82% | 1021.8 hPa | 0 mm | - | 515 W/m² | - |
* Rain latest hour (hover to see other rain measurements)
** Current wind speed in m/s (hover to see current wind gust speed)